This is the latest recevied weather packets stored in our database for station/object M0HPP-13. If no packets are shown the sender has not sent any weather packets the latest 10 day(s).
| Time | Temp. | Humidity | Pressure | Rain* | Wind** | Luminosity | Snow |
|---|---|---|---|---|---|---|---|
| 1787557686 | 13.33° C | 99% | 1022.8 hPa | 0 mm | - | 100 W/m² | - |
| 1787557086 | 13.33° C | 99% | 1022.8 hPa | 0 mm | - | 109 W/m² | - |
| 1787556486 | 13.33° C | 99% | 1022.8 hPa | 0 mm | - | 93 W/m² | - |
| 1787555886 | 12.78° C | 99% | 1022.8 hPa | 0 mm | - | 66 W/m² | - |
| 1787555286 | 13.33° C | 99% | 1022.8 hPa | 0 mm | - | 78 W/m² | - |
| 1787554686 | 12.78° C | 99% | 1022.8 hPa | 0 mm | - | 70 W/m² | - |
| 1787554086 | 12.78° C | 99% | 1022.8 hPa | 0 mm | - | 88 W/m² | - |
| 1787553486 | 12.78° C | 99% | 1022.8 hPa | 0 mm | - | 56 W/m² | - |
| 1787552886 | 12.22° C | 99% | 1022.7 hPa | 0 mm | - | 63 W/m² | - |
| 1787552286 | 12.22° C | 99% | 1022.6 hPa | 0 mm | - | 31 W/m² | - |
| 1787551686 | 12.22° C | 99% | 1022.7 hPa | 0 mm | - | 14 W/m² | - |
| 1787551086 | 12.22° C | 99% | 1022.7 hPa | 0 mm | - | 14 W/m² | - |
| 1787550486 | 12.22° C | 99% | 1022.8 hPa | 0 mm | - | 12 W/m² | - |
| 1787549886 | 11.67° C | 99% | 1022.8 hPa | 0 mm | - | 9 W/m² | - |
| 1787549286 | 11.67° C | 99% | 1022.9 hPa | 0 mm | - | 6 W/m² | - |
| 1787548686 | 11.67° C | 99% | 1022.9 hPa | 0 mm | - | 3 W/m² | - |
| 1787548086 | 11.67° C | 99% | 1022.9 hPa | 0 mm | - | 1 W/m² | - |
| 1787547486 | 11.67° C | 99% | 1023.1 hPa | 0 mm | - | 1 W/m² | - |
| 1787546886 | 11.67° C | 99% | 1023.1 hPa | 0 mm | - | 0 W/m² | - |
| 1787546286 | 11.67° C | 99% | 1023.1 hPa | 0 mm | - | 0 W/m² | - |
| 1787545686 | 11.67° C | 99% | 1023.1 hPa | 0 mm | - | 0 W/m² | - |
| 1787545086 | 11.67° C | 99% | 1023.1 hPa | 0 mm | - | 0 W/m² | - |
| 1787544486 | 11.67° C | 99% | 1023.2 hPa | 0 mm | - | 0 W/m² | - |
| 1787543886 | 11.67° C | 99% | 1023.2 hPa | 0 mm | - | 0 W/m² | - |
| 1787543286 | 11.67° C | 99% | 1023.5 hPa | 0 mm | - | 0 W/m² | - |
* Rain latest hour (hover to see other rain measurements)
** Current wind speed in m/s (hover to see current wind gust speed)